Location: Davayat
(45.9471°N, 3.1105°E)
Time: 21:54:16
(UTC+00:00)

Meteor 2-12 Rocket - Pass Details

Date: 29 April 2021
Orbit: 935 x 958 km, 82.5° (Epoch: 16 May)

Event Time Altitude Azimuth Distance (km) Brightness Sun altitude
Rises 00:16:18 0° 341° (NNW) 3,622 8.4 -29.2°
Reaches altitude 10° 00:19:08 10° 331° (NNW) 2,669 7.4 -29.1°
Enters shadow 00:24:03 28° 277° (W) 1,687 5.7 -28.9°
